Location: Karcze
(52.0945°N, 22.4786°E)
Time: 18:24:56
(UTC+00:00)

A-11 Canister half - Pass Details

Date: 09 August 2021
Orbit: 1515 x 1685 km, 47.2° (Epoch: 20 September)

Event Time Altitude Azimuth Distance (km) Brightness Sun altitude
Rises 17:57:37 0° 280° (W) 4,832 13.5 0.3°
Reaches altitude 10° 18:00:47 10° 276° (W) 3,867 12.6 -0.1°
Maximum altitude 18:10:18 54° 203° (SSW) 1,964 9.6 -1.4°
Drops below altitude 10° 18:20:01 10° 130° (SE) 3,944 10.5 -2.7°
Enters shadow 18:22:13 - 127° (SE) 4,610 10.8 -3.0°
Sets 18:23:17 0° 126° (SE) 4,933 - -3.2°
